Location: Feigenhofen
(48.4939°N, 10.7793°E)
Time: 17:42:03
(UTC+00:00)

Lacrosse 5 rocket - Pass Details

Date: 26 May 2022
Orbit: 456 x 629 km, 57.0° (Epoch: 06 July)

Event Time Altitude Azimuth Distance (km) Brightness Sun altitude
Exits shadow 01:21:30 25° 184° (S) 1,059 2.2 -14.8°
Maximum altitude 01:23:11 39° 134° (SE) 796 2.0 -14.7°
Drops below altitude 10° 01:26:59 10° 65° (ENE) 1,806 4.8 -14.3°
Sets 01:29:22 0° 58° (ENE) 2,737 6.1 -14.1°
